Simultaneous Nadir Overpasses (SNOs) Predictions

Prediction of SNOs between GOES-14 and AQUA Satellite Orbit:

Table of predicted SNOs for the next 14.0 days since TLE Epoch: 8/26/2022
Index Date Time (GOES-14) GOES-14 Lat,Lon AQUA Lat,Lon Distance(km) Time Diff (sec)
1 08/27/2022 08:56:56 -0.50,-104.44 0.44,-108.82 497.31 80
2 08/28/2022 20:23:08 0.50,-104.62 1.34,-100.62 455.55 80
3 08/29/2022 08:44:16 -0.50,-104.44 -0.26,-105.74 147.06 80
4 08/31/2022 08:28:55 -0.50,-104.43 -0.90,-102.65 203.12 80
5 08/31/2022 20:50:11 0.50,-104.60 -0.18,-107.81 365.59 80
6 09/02/2022 20:37:31 0.51,-104.60 0.48,-104.73 15.01 80
7 09/04/2022 20:27:30 0.51,-104.59 1.14,-101.64 334.80 80
8 09/05/2022 08:48:36 -0.51,-104.44 0.01,-106.75 263.56 80
9 09/07/2022 08:33:15 -0.52,-104.42 -0.66,-103.67 85.46 80
10 09/07/2022 20:54:32 0.52,-104.54 -0.40,-108.83 487.92 80
11 09/09/2022 08:20:34 -0.53,-104.41 -1.33,-100.58 435.05 80
